This is the latest recevied weather packets stored in our database for station/object KD7AWQ. If no packets are shown the sender has not sent any weather packets the latest 10 day(s).
| Time | Temp. | Humidity | Pressure | Rain* | Wind** | Luminosity | Snow |
|---|---|---|---|---|---|---|---|
| 1777679567 | 25° C | 15% | 1180.4 hPa | 0 mm | - | 383 W/m² | - |
| 1777679262 | 24.44° C | 16% | 1180.2 hPa | 0 mm | - | 416 W/m² | - |
| 1777678960 | 24.44° C | 16% | 1180 hPa | 0 mm | - | 436 W/m² | - |
| 1777678658 | 25° C | 16% | 1180.3 hPa | 0 mm | - | 461 W/m² | - |
| 1777678356 | 25.56° C | 15% | 1180.5 hPa | 0 mm | - | 483 W/m² | - |
| 1777678050 | 25.56° C | 14% | 1180.2 hPa | 0 mm | - | 506 W/m² | - |
| 1777677748 | 25° C | 16% | 1180.5 hPa | 0 mm | - | 528 W/m² | - |
| 1777677445 | 25° C | 16% | 1180.1 hPa | 0 mm | - | 549 W/m² | - |
| 1777677143 | 25° C | 16% | 1180.1 hPa | 0 mm | - | 574 W/m² | - |
| 1777676841 | 25.56° C | 16% | 1180.3 hPa | 0 mm | - | 594 W/m² | - |
| 1777676540 | 25° C | 16% | 1180.1 hPa | 0 mm | - | 615 W/m² | - |
| 1777676237 | 25.56° C | 14% | 1180 hPa | 0 mm | - | 637 W/m² | - |
| 1777675934 | 25° C | 16% | 1180.1 hPa | 0 mm | - | 657 W/m² | - |
| 1777675629 | 25° C | 15% | 1180.4 hPa | 0 mm | - | 675 W/m² | - |
| 1777675328 | 25° C | 16% | 1180.3 hPa | 0 mm | - | 693 W/m² | - |
| 1777675024 | 25° C | 16% | 1180.3 hPa | 0 mm | - | 716 W/m² | - |
| 1777674720 | 25° C | 16% | 1180.4 hPa | 0 mm | - | 735 W/m² | - |
| 1777674417 | 25° C | 15% | 1180.4 hPa | 0 mm | - | 751 W/m² | - |
| 1777674115 | 25.56° C | 15% | 1180.3 hPa | 0 mm | - | 768 W/m² | - |
| 1777673810 | 25° C | 15% | 1180.5 hPa | 0 mm | - | 785 W/m² | - |
| 1777673508 | 25.56° C | 15% | 1180.3 hPa | 0 mm | - | 805 W/m² | - |
| 1777673205 | 25° C | 16% | 1180.3 hPa | 0 mm | - | 828 W/m² | - |
| 1777672902 | 25.56° C | 14% | 1180.3 hPa | 0 mm | - | 861 W/m² | - |
| 1777672599 | 25.56° C | 14% | 1180.4 hPa | 0 mm | - | 902 W/m² | - |
| 1777672294 | 25.56° C | 15% | 1180.4 hPa | 0 mm | - | 963 W/m² | - |
* Rain latest hour (hover to see other rain measurements)
** Current wind speed in m/s (hover to see current wind gust speed)